Weather in Zebir-Yurt

Russia / Chechen Republic     43°30′34″N   45°21′36″E
temp.,
°C
wind,
m/s
gust,
m/s
humid.,
%
clouds,
%
prec.,
mm/h
press.,
hPa
HPBL,
m
20 april, tue
tue2000:00+15ne226146 0.0 101430
03:00+12e1263100 0.0 101315
06:00+12se3567100 0.0 1011110
09:00+17e3559100 0.0 1009388
12:00+23ese4647100 0.0 1005542
15:00+26ne334117 0.0 1004723
18:00+20ne356249 0.0 1005139
21:00+18wnw2266100 0.0 100716
21 april, wed
wed2100:00+15nw81284100 0.0 1012572
03:00+15wnw5976100 0.0 10161052
06:00+14wnw3664100 0.0 1017567
09:00+14nw565988 0.0 1018746
12:00+17nnw4448100 0.0 10171291
15:00+17n444986 0.1 10171558
18:00+14n2470100 0.4 1019239
21:00+12n247479 0.4 102192
22 april, thu
thu2200:00+12wnw0078100 0.2 102117
03:00+12ne1176100 0.2 102125
06:00+11nne1276100 0.0 102198
09:00+11nnw4572100 0.0 1023506
12:00+11n3480100 0.0 1024467
15:00+11ne0176100 0.0 1023468
18:00+12sse1175100 0.0 1023372
21:00+10wnw2394100 3.6 1023122
23 april, fri
fri2300:00+9nw2497100 3.3 1023185
03:00+9nw3598100 8.9 1023241
06:00+9wsw2394100 2.4 1024165
09:00+10w3586100 3.8 1025475
12:00+10wsw3488100 1.6 1025304
15:00+12sw44737 1.8 1024430
18:00+13w11725 0.0 102310
21:00+9ssw11830 0.0 102410
24 april, sat
sat2400:00+8ssw21850 0.0 102310
03:00+8ssw1185100 0.0 102210
06:00+9s228357 0.0 102220
09:00+15e4557100 0.0 1020645
12:00+19e66457 0.0 10181156
15:00+20e77445 0.0 10171297
18:00+15ene6963100 0.0 1017325
21:00+10ne11805 0.0 101711